Location: Akdamlar
(36.8729°N, 30.5187°E)
Time: 21:05:39
(UTC+00:00)

Cosmos 1437 - Pass Details

Date: 18 September 2020
Orbit: 366 x 369 km, 81.2° (Epoch: 24 October)

Event Time Altitude Azimuth Distance (km) Brightness Sun altitude
Rises 16:37:18 0° 1° (N) 2,250 6.5 -8.2°
Reaches altitude 10° 16:39:25 10° 12° (NNE) 1,394 5.4 -8.6°
Maximum altitude 16:42:10 31° 78° (ENE) 686 3.3 -9.1°
Drops below altitude 10° 16:44:54 10° 143° (SE) 1,382 4.9 -9.7°
Enters shadow 16:45:50 - 149° (SSE) 1,752 5.5 -9.8°
